Location: Boursonne
(49.2024°N, 3.0468°E)
Time: 02:45:14
(UTC+00:00)

FALCON 9 DEB - Pass Details

Date: 03 March 2021
Orbit: 371 x 390 km, 53.0° (Epoch: 12 April)

Event Time Altitude Azimuth Distance (km) Brightness Sun altitude
Rises 18:26:36 0° 277° (W) 2,296 9.1 -9.3°
Reaches altitude 10° 18:28:45 10° 285° (WNW) 1,440 7.2 -9.7°
Maximum altitude 18:31:49 40° 357° (N) 602 3.9 -10.2°
Enters shadow 18:34:18 14° 65° (ENE) 1,219 4.9 -10.6°
